TimeCST,TemperatureF,Dew PointF,Humidity,Sea Level PressureIn,VisibilityMPH,Wind Direction,Wind SpeedMPH,Gust SpeedMPH,PrecipitationIn,Events,Conditions,WindDirDegrees,DateUTC
12:53 AM,9.0,3.0,77,30.22,9.0,Calm,Calm,-,N/A,,Clear,0,2012-12-22 06:53:00
1:53 AM,9.0,3.9,80,30.21,9.0,Calm,Calm,-,N/A,,Clear,0,2012-12-22 07:53:00
2:53 AM,9.0,3.9,80,30.18,9.0,ESE,3.5,-,N/A,,Clear,120,2012-12-22 08:53:00
3:53 AM,10.9,5.0,77,30.15,10.0,ESE,3.5,-,N/A,,Clear,110,2012-12-22 09:53:00
4:53 AM,10.9,6.1,81,30.13,10.0,East,4.6,-,N/A,,Clear,80,2012-12-22 10:53:00
5:53 AM,12.0,6.1,77,30.10,10.0,ESE,5.8,-,N/A,,Clear,110,2012-12-22 11:53:00
6:53 AM,12.0,6.1,77,30.09,10.0,ENE,3.5,-,N/A,,Clear,60,2012-12-22 12:53:00
7:53 AM,12.0,6.1,77,30.08,10.0,East,5.8,-,N/A,,Clear,80,2012-12-22 13:53:00
8:53 AM,12.9,7.0,77,30.07,10.0,ESE,4.6,-,N/A,,Clear,110,2012-12-22 14:53:00
9:53 AM,18.0,8.1,65,30.08,10.0,Calm,Calm,-,N/A,,Clear,0,2012-12-22 15:53:00
10:53 AM,21.9,10.9,63,30.07,10.0,SW,5.8,-,N/A,,Clear,220,2012-12-22 16:53:00
11:53 AM,24.1,12.0,60,30.03,10.0,Calm,Calm,-,N/A,,Clear,0,2012-12-22 17:53:00
12:53 PM,25.0,12.9,60,30.01,10.0,Calm,Calm,-,N/A,,Clear,0,2012-12-22 18:53:00
1:53 PM,27.0,14.0,58,30.00,10.0,Calm,Calm,-,N/A,,Clear,0,2012-12-22 19:53:00
2:53 PM,28.0,14.0,56,30.00,10.0,Calm,Calm,-,N/A,,Clear,0,2012-12-22 20:53:00
3:53 PM,27.0,15.1,61,30.00,10.0,Calm,Calm,-,N/A,,Clear,0,2012-12-22 21:53:00
4:53 PM,25.0,14.0,63,30.02,10.0,NW,4.6,-,N/A,,Clear,310,2012-12-22 22:53:00
5:53 PM,21.9,12.9,68,30.04,10.0,NNW,6.9,-,N/A,,Clear,330,2012-12-22 23:53:00
6:53 PM,21.0,12.0,68,30.05,10.0,NNW,6.9,-,N/A,,Clear,330,2012-12-23 00:53:00
7:53 PM,19.9,10.9,68,30.05,10.0,North,6.9,-,N/A,,Clear,350,2012-12-23 01:53:00
8:53 PM,19.0,10.9,71,30.06,9.0,NNW,3.5,-,N/A,,Clear,340,2012-12-23 02:53:00
9:53 PM,18.0,10.9,74,30.06,8.0,NNW,4.6,-,N/A,,Clear,340,2012-12-23 03:53:00
10:53 PM,18.0,12.0,78,30.07,9.0,North,8.1,-,N/A,,Clear,360,2012-12-23 04:53:00
11:31 PM,17.6,12.2,79,30.02,8.0,North,8.1,-,N/A,,Mostly Cloudy,360,2012-12-23 05:31:00
11:53 PM,18.0,12.9,81,30.07,8.0,North,9.2,-,N/A,,Overcast,10,2012-12-23 05:53:00